Vorticity
5 6 5 5 5 5 7 7 7 6 5 4 4 3 4 5 3 3 4 5 6 6 9 9 5 4 5 8 17 5 -13 6 5 2 10 2 9 -0 4 2 4 1 6 5 4
4 4 5 6 6 4 4 6 6 6 7 5 4 4 6 5 4 3 4 6 5 6 9 8 6 6 6 10 12 7 8 0 -2 3 4 2 2 -0 3 17 -4 9 12 8 7
4 4 4 5 6 7 6 5 4 4 5 6 6 6 6 7 6 6 5 6 5 5 7 6 6 7 7 6 6 -2 5 1 1 2 16 -3 3 9 9 13 4 -2 14 6 12
5 5 5 6 6 6 6 7 7 6 5 5 5 6 6 7 9 7 7 7 5 5 7 5 4 5 5 3 10 -0 -1 -1 -2 2 4 6 1 -8 8 -5 -2 19 13 0 3
4 6 6 5 6 7 7 6 7 7 6 6 6 6 6 8 8 11 9 8 6 5 6 6 7 4 3 3 3 7 -4 -0 2 3 -0 6 6 3 -6 2 -3 5 22 8 3
5 6 5 5 6 6 6 6 7 7 8 7 7 6 6 7 6 9 11 8 6 4 5 4 4 4 3 5 4 7 5 5 7 5 3 7 4 8 1 2 22 -13 16 23 4
6 6 7 6 6 7 7 5 6 7 8 8 8 8 9 9 8 9 11 8 4 5 4 5 5 5 6 4 5 6 6 4 6 -1 4 -0 4 -6 2 6 -10 16 1 14 8
6 6 6 4 5 7 8 8 7 6 7 9 10 11 9 7 9 8 8 6 6 5 4 6 6 4 8 10 7 8 5 3 9 20 10 10 16 4 7 1 5 9 3 62 -4
5 6 7 6 8 8 7 8 9 7 6 6 6 8 11 7 7 8 6 6 5 6 7 7 8 6 7 12 12 10 3 10 -16 8 44 -2 23 -1 3 3 -4 9 10 108 6
12 -4 6 6 5 4 6 6 5 5 8 10 5 5 6 11 7 6 6 3 3 4 3 4 4 9 8 6 0 0 7 0 13 5 7 3 13 -4 2 5 15 4 -1 6 53
14 11 5 7 6 6 5 5 3 4 3 4 5 10 5 4 8 9 6 6 4 1 4 0 6 6 9 6 3 3 5 4 9 7 5 3 6 18 -6 4 1 4 0 -9 10
13 11 9 7 6 6 6 7 8 7 8 6 1 4 6 10 2 4 6 4 8 8 7 6 3 3 8 7 8 6 5 7 8 11 1 5 7 -1 0 2 6 1 -1 7 14
10 11 11 11 12 8 6 4 4 6 8 11 9 14 8 4 5 7 3 6 6 7 8 5 5 7 6 7 8 6 8 8 5 3 4 5 3 4 1 -2 -7 -1 14 -7 11
6 6 6 5 2 2 2 2 4 3 4 5 6 1 8 15 9 7 1 4 2 1 3 3 7 5 8 8 7 11 8 7 7 8 8 14 -1 2 -5 2 2 2 15 6 -1
3 2 2 2 2 1 4 4 4 7 7 8 9 6 3 1 -1 15 11 11 5 3 5 6 3 5 4 4 1 11 9 5 4 4 7 10 8 19 12 5 25 3 17 0 9
0 4 5 4 4 4 4 4 6 6 3 1 7 13 9 8 7 4 8 7 12 11 6 7 7 4 6 4 9 7 7 5 4 7 8 17 18 25 26 20 -2 5 4 1 9
8 4 5 5 5 5 5 5 4 6 11 12 9 12 8 8 6 8 8 13 16 14 10 9 10 12 10 15 13 10 5 8 5 1 18 2 -1 3 -13 6 1 3 -5 -2 3
10 10 9 7 10 10 10 12 11 10 10 8 7 7 6 7 12 15 9 12 11 20 18 11 13 18 23 17 17 12 7 6 4 4 15 0 10 -11 4 -1 27 10 13 3 14
11 12 12 13 12 12 11 13 14 18 11 10 11 9 7 8 16 29 10 5 7 7 12 12 18 18 -1 -3 -10 -3 10 13 14 6 12 9 6 0 -6 11 2 12 -7 14 11
5 3 4 4 4 5 7 9 8 13 17 14 14 7 7 8 -0 7 2 8 16 15 14 18 18 5 -3 9 8 -6 -9 10 10 7 14 20 33 5 5 2 -10 11 4 -6 10
12 11 11 8 6 6 8 6 7 8 7 12 12 12 6 1 7 3 5 8 4 1 4 19 11 13 8 12 4 2 -2 -3 6 17 8 -4 3 1 0 25 12 3 11 6 10
12 12 10 11 12 10 10 9 5 7 6 8 13 11 14 0 7 2 7 16 -1 7 15 12 31 7 8 -0 9 2 8 -2 7 10 29 -1 -6 9 -7 -4 -2 8 -7 2 -9
9 10 11 10 10 10 11 10 9 7 6 7 6 9 12 13 8 13 40 4 -0 1 -3 4 4 27 13 4 2 7 -10 8 -0 17 21 7 1 1 -2 6 2 7 -1 2 26
8 7 8 9 8 6 7 9 9 9 6 5 3 5 7 13 9 9 21 8 7 8 3 8 3 3 18 27 -0 2 1 -2 14 8 4 14 24 9 4 -2 -1 3 5 1 8
11 12 11 7 6 9 10 8 8 9 10 7 5 5 5 9 10 16 13 7 3 -0 4 2 9 -0 3 1 13 9 10 -0 17 0 4 -5 21 15 20 17 -2 1 -1 5 122
15 10 10 10 11 9 13 8 10 9 7 10 8 6 4 5 11 13 21 -4 2 3 0 -1 -1 -1 5 25 19 -4 1 10 11 -24 60 0 8 14 4 9 10 6 16 -6 -9
15 15 15 14 14 12 10 9 9 7 10 9 4 8 6 5 5 9 23 7 2 6 -4 -4 -5 -1 -2 7 28 -8 -2 -3 -30 14 19 9 15 9 5 0 -2 -3 -5 26 19
Height
5886 5888 5891 5894 5896 5898 5900 5902 5904 5907 5909 5912 5914 5916 5918 5919 5919 5920 5920 5921 5920 5920 5920 5920 5919 5918 5918 5919 5921 5921 5923 5920 5920 5920 5916 5916 5918 5919 5918 5917 5913 5912 5909 5908 5906
5884 5886 5888 5891 5893 5896 5898 5900 5902 5905 5907 5910 5912 5914 5916 5917 5919 5920 5920 5920 5920 5920 5920 5920 5920 5920 5920 5921 5920 5920 5922 5920 5920 5921 5922 5919 5917 5913 5915 5919 5914 5911 5909 5907 5903
5881 5883 5886 5888 5890 5893 5896 5898 5900 5902 5904 5907 5909 5912 5914 5915 5916 5918 5919 5919 5920 5920 5920 5920 5921 5921 5921 5921 5921 5921 5921 5919 5919 5918 5923 5921 5920 5920 5917 5917 5914 5912 5909 5906 5902
5878 5880 5882 5885 5887 5890 5892 5895 5897 5899 5902 5904 5906 5909 5911 5913 5915 5915 5916 5917 5919 5920 5920 5920 5920 5922 5922 5922 5922 5921 5920 5918 5917 5918 5920 5919 5919 5918 5918 5917 5915 5914 5910 5905 5900
5874 5876 5879 5882 5884 5886 5889 5891 5894 5896 5899 5901 5904 5906 5909 5910 5912 5913 5914 5915 5917 5919 5919 5919 5920 5921 5921 5921 5922 5924 5922 5917 5915 5914 5916 5916 5916 5917 5916 5915 5914 5913 5909 5905 5901
5870 5873 5876 5878 5880 5883 5885 5888 5890 5893 5895 5898 5900 5903 5906 5908 5910 5910 5912 5913 5916 5917 5918 5919 5919 5921 5921 5920 5920 5919 5921 5917 5915 5914 5914 5916 5913 5915 5915 5913 5913 5911 5907 5905 5902
5865 5868 5871 5874 5877 5879 5881 5884 5887 5889 5892 5895 5897 5900 5903 5904 5907 5908 5910 5912 5913 5915 5916 5917 5918 5919 5920 5920 5920 5920 5920 5917 5919 5917 5915 5916 5913 5913 5910 5913 5910 5908 5904 5901 5901
5861 5864 5867 5870 5872 5875 5878 5880 5883 5886 5889 5892 5894 5896 5900 5900 5904 5906 5908 5910 5911 5913 5914 5916 5916 5917 5918 5919 5918 5918 5918 5918 5919 5918 5915 5916 5916 5912 5909 5910 5907 5906 5900 5898 5890
5856 5860 5863 5866 5868 5871 5874 5877 5880 5883 5885 5888 5891 5893 5896 5899 5900 5903 5905 5907 5909 5910 5912 5913 5914 5915 5916 5917 5916 5915 5915 5916 5917 5914 5912 5914 5915 5908 5904 5906 5906 5903 5899 5882 5880
5851 5855 5858 5862 5864 5867 5870 5874 5876 5879 5882 5884 5887 5891 5894 5896 5898 5898 5901 5904 5906 5907 5909 5911 5912 5913 5913 5915 5914 5912 5911 5911 5914 5914 5912 5911 5910 5911 5899 5902 5902 5900 5895 5891 5887
5846 5850 5853 5857 5860 5863 5867 5870 5874 5876 5878 5881 5885 5886 5889 5892 5894 5896 5898 5901 5902 5904 5905 5907 5910 5909 5909 5910 5911 5910 5908 5907 5909 5908 5908 5908 5908 5907 5905 5903 5899 5897 5894 5890 5888
5841 5845 5848 5852 5855 5858 5861 5865 5867 5872 5874 5876 5879 5882 5885 5887 5890 5892 5894 5897 5898 5899 5901 5904 5905 5905 5906 5906 5907 5908 5908 5905 5905 5905 5904 5905 5905 5897 5899 5900 5898 5897 5892 5890 5886
5835 5839 5842 5846 5849 5852 5857 5862 5863 5866 5869 5872 5874 5877 5879 5882 5885 5887 5889 5891 5893 5895 5896 5899 5900 5901 5903 5903 5903 5904 5904 5903 5902 5900 5899 5900 5899 5896 5892 5894 5894 5894 5889 5886 5881
5828 5833 5837 5841 5845 5847 5853 5856 5856 5861 5864 5870 5869 5874 5873 5875 5881 5881 5884 5885 5889 5890 5890 5895 5895 5897 5898 5899 5899 5901 5899 5899 5898 5897 5897 5896 5895 5895 5890 5890 5887 5892 5887 5882 5882
5822 5827 5831 5835 5838 5841 5848 5848 5852 5856 5857 5863 5864 5866 5868 5871 5873 5874 5876 5879 5882 5883 5885 5891 5890 5890 5892 5894 5895 5898 5895 5895 5893 5893 5894 5895 5891 5891 5890 5887 5886 5889 5885 5882 5875
5816 5820 5824 5827 5830 5835 5839 5839 5845 5849 5850 5853 5857 5859 5862 5865 5866 5866 5869 5872 5874 5875 5878 5883 5884 5884 5888 5888 5890 5891 5891 5890 5890 5890 5890 5888 5886 5887 5887 5885 5886 5887 5886 5879 5875
5807 5811 5816 5819 5823 5827 5829 5833 5838 5840 5847 5848 5848 5851 5854 5857 5860 5859 5862 5865 5868 5868 5871 5874 5876 5878 5881 5885 5885 5886 5887 5887 5887 5886 5886 5883 5881 5882 5882 5880 5881 5884 5883 5882 5878
5799 5803 5807 5809 5814 5817 5821 5825 5829 5835 5839 5836 5838 5842 5846 5850 5852 5853 5855 5859 5862 5862 5864 5866 5871 5875 5879 5878 5880 5881 5882 5882 5882 5882 5882 5879 5876 5879 5878 5875 5876 5878 5877 5877 5871
5791 5795 5797 5802 5805 5809 5813 5817 5824 5826 5827 5828 5832 5836 5839 5843 5845 5845 5847 5852 5856 5856 5858 5860 5865 5868 5868 5872 5873 5877 5877 5878 5877 5877 5876 5876 5873 5875 5875 5875 5876 5874 5874 5869 5865
5782 5785 5788 5793 5796 5801 5806 5812 5816 5817 5819 5822 5825 5827 5830 5834 5837 5838 5840 5846 5851 5852 5853 5857 5860 5863 5866 5866 5869 5868 5874 5873 5873 5873 5873 5871 5869 5870 5868 5869 5871 5869 5867 5865 5863
5772 5774 5780 5783 5787 5792 5798 5805 5808 5808 5810 5815 5819 5822 5825 5826 5830 5832 5837 5841 5844 5846 5849 5852 5853 5860 5860 5862 5863 5865 5867 5870 5869 5869 5871 5869 5868 5867 5866 5860 5863 5865 5861 5862 5862
5762 5765 5770 5773 5778 5783 5790 5795 5798 5800 5802 5807 5813 5817 5820 5823 5825 5829 5834 5836 5840 5843 5845 5848 5849 5854 5856 5858 5857 5858 5861 5865 5865 5867 5866 5866 5867 5868 5867 5866 5864 5864 5863 5864 5864
5751 5756 5760 5764 5768 5773 5778 5783 5787 5792 5793 5800 5804 5809 5813 5816 5820 5824 5830 5833 5833 5836 5839 5842 5842 5846 5850 5855 5856 5857 5858 5861 5860 5861 5862 5863 5865 5864 5866 5862 5862 5859 5857 5856 5857
5741 5746 5750 5756 5757 5760 5765 5772 5778 5784 5788 5791 5795 5800 5806 5810 5812 5818 5825 5827 5827 5830 5832 5836 5837 5839 5844 5852 5851 5851 5853 5856 5857 5856 5858 5857 5860 5862 5863 5860 5859 5854 5854 5852 5849
5731 5735 5740 5747 5750 5754 5759 5767 5772 5777 5782 5783 5788 5793 5797 5802 5805 5811 5819 5822 5823 5824 5826 5828 5832 5835 5838 5842 5843 5845 5847 5848 5850 5852 5852 5854 5855 5857 5858 5858 5856 5855 5852 5845 5839
5720 5722 5727 5731 5737 5743 5750 5757 5761 5765 5769 5773 5776 5782 5787 5793 5798 5804 5810 5814 5814 5816 5820 5822 5824 5826 5830 5835 5838 5839 5842 5844 5844 5847 5843 5848 5850 5853 5853 5854 5855 5853 5850 5845 5840
5709 5712 5716 5720 5725 5731 5735 5741 5746 5753 5758 5761 5765 5771 5777 5784 5786 5794 5801 5806 5808 5810 5813 5816 5817 5820 5825 5830 5832 5835 5839 5841 5840 5837 5838 5841 5845 5848 5850 5850 5849 5849 5847 5842 5841